KF5PJP Weather Reports


Display with metric or nautical units.
time (UTC)temp
F
wind
direction
speed
MPH
gust
MPH
rain 1hr
in
rain 24hr
in
rain mn
in
humidity
%
barometer
mb
20260510090853 68 236 0.0 0.0 0.00 0.00 0.00 92 1012.0
20260510090424 68 236 0.0 0.0 0.00 0.00 0.00 92 1011.9
20260510085409 68 234 0.0 0.0 0.00 0.00 0.00 92 1011.6
20260510084936 68 234 0.0 0.0 0.00 0.00 0.00 92 1011.3
20260510083918 68 227 0.0 0.0 0.00 0.00 0.00 92 1011.7
20260510082905 68 227 0.0 0.0 0.00 0.00 0.00 91 1011.8
20260510082440 68 227 0.0 0.0 0.00 0.00 0.00 92 1011.9
20260510081357 68 227 0.0 0.0 0.00 0.00 0.00 91 1011.6
20260510080352 68 227 0.0 0.0 0.00 0.00 0.00 91 1011.0
20260510075916 69 227 0.0 0.0 0.00 0.00 0.00 91 1010.8
20260510075444 69 227 0.0 0.0 0.00 0.00 0.00 91 1010.5
20260510074854 69 227 0.0 0.0 0.00 0.00 0.00 90 1010.3
20260510074419 69 227 0.0 0.0 0.00 0.00 0.00 90 1010.1
20260510073400 69 284 0.0 1.0 0.00 0.00 0.00 90 1009.8
20260510072935 69 286 0.0 1.0 0.00 0.00 0.00 90 1009.8
20260510071925 69 202 0.0 1.0 0.00 0.00 0.00 89 1009.8
20260510070908 70 240 0.0 0.0 0.00 0.00 0.00 89 1009.6
20260510065904 70 238 0.0 0.0 0.00 0.00 0.00 88 1010.0
20260510065352 70 240 0.0 1.0 0.00 0.00 0.00 88 1010.2
20260510064852 70 277 0.0 1.0 0.00 0.00 0.00 88 1010.4
20260510064416 70 277 0.0 1.0 0.00 0.00 0.00 88 1010.5
20260510063917 70 277 0.0 1.0 0.00 0.00 0.00 88 1010.6
20260510063419 71 284 0.0 1.0 0.00 0.00 0.00 87 1010.6
20260510062859 71 284 0.0 1.0 0.00 0.00 0.00 87 1010.6
20260510062355 71 284 0.0 1.0 0.00 0.00 0.00 87 1010.6
20260510061901 71 297 0.0 1.0 0.00 0.00 0.00 87 1010.5
20260510061357 71 258 0.0 2.0 0.00 0.00 0.00 86 1010.5
20260510060854 71 259 0.0 2.0 0.00 0.00 0.00 86 1010.5
20260510060404 72 219 0.0 1.0 0.00 0.00 0.00 86 1010.4
20260510055925 72 264 0.0 1.0 0.00 0.00 0.00 86 1010.3
20260510055419 72 267 0.0 2.0 0.00 0.00 0.00 86 1010.3
20260510054920 72 254 1.0 2.0 0.00 0.00 0.00 86 1010.3
20260510054413 72 259 0.0 3.0 0.00 0.00 0.00 86 1010.3
20260510053907 72 298 1.0 3.0 0.00 0.00 0.00 86 1010.2
20260510053356 72 262 1.0 2.0 0.00 0.00 0.00 86 1010.1
20260510052856 72 276 1.0 2.0 0.00 0.00 0.00 86 1010.2
20260510052352 73 230 0.0 1.0 0.00 0.00 0.00 86 1010.2
20260510051917 73 271 0.0 2.0 0.00 0.00 0.00 87 1010.1
20260510051416 73 296 0.0 2.0 0.00 0.00 0.00 87 1010.1
20260510050906 73 242 0.0 2.0 0.00 0.00 0.00 86 1010.0
20260510050407 73 298 0.0 2.0 0.00 0.00 0.00 86 1010.0
20260510045903 74 130 0.0 1.0 0.00 0.00 0.00 86 1009.9
20260510045435 74 237 0.0 3.0 0.00 0.00 0.00 86 1010.0
20260510044411 74 284 0.0 2.0 0.00 0.00 0.00 86 1009.9
20260510043943 74 237 0.0 2.0 0.00 0.00 0.00 87 1009.9
20260510043400 74 210 0.0 2.0 0.00 0.00 0.00 86 1009.9
20260510042915 75 269 0.0 3.0 0.00 0.00 0.00 86 1010.1
20260510042449 75 277 0.0 3.0 0.00 0.00 0.00 86 1010.1
20260510041915 75 279 1.0 3.0 0.00 0.00 0.00 87 1010.3
20260510041441 75 279 1.0 3.0 0.00 0.00 0.00 87 1010.3
20260510040901 75 252 1.0 3.0 0.00 0.00 0.00 87 1010.3
20260510040434 75 277 1.0 3.0 0.00 0.00 0.00 87 1010.3
20260510040012 76 284 0.0 3.0 0.00 0.00 0.00 87 1010.3
20260510035408 76 272 1.0 3.0 0.00 0.00 0.00 87 1010.3
20260510034356 76 279 1.0 4.0 0.00 0.00 0.00 86 1010.2
20260510032918 77 264 1.0 4.0 0.00 0.00 0.00 85 1010.2
20260510031914 77 251 1.0 5.0 0.00 0.00 0.00 85 1010.0
20260510030857 77 277 1.0 4.0 0.00 0.00 0.00 84 1009.7
20260510030436 77 288 1.0 4.0 0.00 0.00 0.00 84 1009.6
20260510025855 78 281 0.0 3.0 0.00 0.00 0.00 83 1009.5
20260510025431 78 272 1.0 3.0 0.00 0.00 0.00 83 1009.5
20260510025009 78 275 1.0 3.0 0.00 0.00 0.00 82 1009.5
20260510024358 78 278 0.0 3.0 0.00 0.00 0.00 82 1009.3
20260510023930 78 277 1.0 3.0 0.00 0.00 0.00 82 1009.2
20260510022404 79 279 1.0 4.0 0.00 0.00 0.00 80 1009.1
20260510021402 79 259 1.0 3.0 0.00 0.00 0.00 79 1009.2
20260510020356 80 274 0.0 2.0 0.00 0.00 0.00 77 1009.1
20260510015927 80 248 1.0 2.0 0.00 0.00 0.00 77 1009.1
20260510014919 81 291 1.0 3.0 0.00 0.00 0.00 75 1008.8
20260510013914 81 275 2.0 3.0 0.00 0.00 0.00 73 1008.7
20260510012859 82 267 1.0 2.0 0.00 0.00 0.00 71 1008.4
20260510012437 82 290 0.0 2.0 0.00 0.00 0.00 70 1008.4
20260510011410 83 267 1.0 2.0 0.00 0.00 0.00 69 1008.2
20260510010934 83 284 0.0 0.0 0.00 0.00 0.00 68 1008.2
20260510010402 83 294 0.0 2.0 0.00 0.00 0.00 67 1008.1
20260510005400 83 286 0.0 2.0 0.00 0.00 0.00 66 1008.0
20260510004939 84 276 0.0 0.0 0.00 0.00 0.00 66 1008.0
20260510004355 84 275 0.0 1.0 0.00 0.00 0.00 66 1007.9
20260510003924 84 280 1.0 2.0 0.00 0.00 0.00 66 1007.9
20260510002909 84 270 0.0 0.0 0.00 0.00 0.00 65 1007.8
20260510001904 84 269 0.0 1.0 0.00 0.00 0.00 66 1007.7
20260510001434 84 269 0.0 2.0 0.00 0.00 0.00 65 1007.7
20260510000847 84 278 1.0 2.0 0.00 0.00 0.00 66 1007.6
20260510000420 84 291 1.0 1.0 0.00 0.00 0.00 66 1007.5
20260509235851 83 282 0.0 2.0 0.00 0.00 0.00 66 1007.6
20260509235406 84 282 1.0 2.0 0.00 0.00 0.00 65 1007.5
20260509234402 84 282 0.0 0.0 0.00 0.00 0.00 65 1007.4
20260509233401 84 283 0.0 2.0 0.00 0.00 0.00 65 1007.1
20260509232921 85 286 0.0 2.0 0.00 0.00 0.00 64 1007.1
20260509232354 85 259 1.0 2.0 0.00 0.00 0.00 63 1007.1
20260509231923 85 238 1.0 2.0 0.00 0.00 0.00 63 1007.1
20260509230853 86 256 2.0 3.0 0.00 0.00 0.00 61 1007.0
20260509230416 86 248 1.0 2.0 0.00 0.00 0.00 61 1007.1
20260509225924 87 253 1.0 2.0 0.00 0.00 0.00 58 1007.1
20260509225508 88 250 1.0 1.0 0.00 0.00 0.00 56 1007.1
20260509224904 90 164 0.0 1.0 0.00 0.00 0.00 53 1007.3
20260509223853 90 138 0.0 2.0 0.00 0.00 0.00 53 1007.2
20260509223433 90 137 0.0 3.0 0.00 0.00 0.00 52 1007.1
20260509222404 90 132 1.0 3.0 0.00 0.00 0.00 54 1007.1
20260509221412 89 138 0.0 2.0 0.00 0.00 0.00 53 1007.1
20260509220357 90 98 1.0 7.0 0.00 0.00 0.00 52 1007.2
20260509215923 90 107 2.0 7.0 0.00 0.00 0.00 53 1007.1
20260509215448 90 98 1.0 5.0 0.00 0.00 0.00 54 1007.2
20260509214900 90 81 1.0 6.0 0.00 0.00 0.00 52 1007.2
20260509214423 90 94 3.0 6.0 0.00 0.00 0.00 51 1007.3
20260509213954 91 137 1.0 4.0 0.00 0.00 0.00 53 1007.3
20260509213350 92 116 2.0 3.0 0.00 0.00 0.00 51 1007.4
20260509212919 92 135 0.0 2.0 0.00 0.00 0.00 52 1007.4
20260509211855 89 115 1.0 3.0 0.00 0.00 0.00 54 1007.5
20260509211413 89 115 1.0 4.0 0.00 0.00 0.00 54 1007.6
20260509210405 88 61 1.0 4.0 0.00 0.00 0.00 55 1007.8
20260509205358 89 71 0.0 5.0 0.00 0.00 0.00 59 1007.8
20260509204925 89 82 3.0 5.0 0.00 0.00 0.00 55 1007.8
20260509204437 89 72 2.0 3.0 0.00 0.00 0.00 57 1007.8
20260509203851 88 269 0.0 3.0 0.00 0.00 0.00 61 1007.9
20260509203435 88 87 2.0 3.0 0.00 0.00 0.00 59 1008.0
20260509202420 87 276 1.0 3.0 0.00 0.00 0.00 63 1008.0
20260509201402 86 130 0.0 2.0 0.00 0.00 0.00 61 1008.2
20260509200411 88 88 1.0 4.0 0.00 0.00 0.00 57 1008.3
20260509195412 89 82 1.0 4.0 0.00 0.00 0.00 59 1008.4
20260509194941 89 137 1.0 4.0 0.00 0.00 0.00 58 1008.5
20260509194402 89 128 0.0 2.0 0.00 0.00 0.00 61 1008.5
20260509193916 87 127 0.0 2.0 0.00 0.00 0.00 63 1008.7
20260509192914 86 40 0.0 3.0 0.00 0.00 0.00 62 1008.7
20260509191858 87 234 0.0 5.0 0.00 0.00 0.00 62 1008.9
20260509191427 86 136 0.0 6.0 0.00 0.00 0.00 63 1008.9
20260509190956 86 94 1.0 6.0 0.00 0.00 0.00 64 1008.9
20260509190358 87 90 1.0 2.0 0.00 0.00 0.00 62 1009.0
20260509185924 87 57 0.0 1.0 0.00 0.00 0.00 63 1009.0
20260509184913 87 132 0.0 3.0 0.00 0.00 0.00 62 1009.0
20260509184430 87 220 0.0 2.0 0.00 0.00 0.00 62 1009.1
20260509183422 86 217 0.0 3.0 0.00 0.00 0.00 64 1009.0
20260509182928 86 105 0.0 5.0 0.00 0.00 0.00 63 1009.1
20260509181912 87 97 0.0 3.0 0.00 0.00 0.00 67 1009.3
20260509180910 85 138 1.0 3.0 0.00 0.00 0.00 64 1009.5
20260509180443 85 101 1.0 5.0 0.00 0.00 0.00 68 1009.5
20260509175920 84 94 0.0 2.0 0.00 0.00 0.00 69 1009.6
20260509174856 83 82 0.0 2.0 0.00 0.00 0.00 70 1009.7
20260509174426 83 45 0.0 2.0 0.00 0.00 0.00 71 1009.9
20260509173417 83 79 1.0 3.0 0.00 0.00 0.00 71 1010.0
20260509171917 83 97 0.0 3.0 0.00 0.00 0.00 73 1010.1
20260509170918 81 104 0.0 3.0 0.00 0.00 0.00 76 1009.9
20260509165904 81 98 0.0 3.0 0.00 0.00 0.00 76 1009.9
20260509165430 81 98 0.0 3.0 0.00 0.00 0.00 75 1010.0
20260509164851 81 96 0.0 3.0 0.00 0.00 0.00 76 1010.0
20260509164415 82 72 1.0 4.0 0.00 0.00 0.00 74 1010.0
20260509163410 82 121 0.0 0.0 0.00 0.00 0.00 74 1010.0
20260509162931 81 99 0.0 4.0 0.00 0.00 0.00 76 1009.9
20260509162414 81 99 1.0 4.0 0.00 0.00 0.00 74 1010.0
20260509161929 82 91 1.0 4.0 0.00 0.00 0.00 73 1010.0
20260509160905 81 107 1.0 3.0 0.00 0.00 0.00 74 1009.8
20260509155921 80 120 1.0 2.0 0.00 0.00 0.00 77 1009.9
20260509155457 79 109 0.0 2.0 0.00 0.00 0.00 80 1009.9
20260509154911 79 88 0.0 0.0 0.00 0.00 0.00 80 1009.9
20260509153916 79 78 0.0 0.0 0.00 0.00 0.00 83 1009.9
20260509153428 78 273 0.0 0.0 0.00 0.00 0.00 85 1009.9
20260509152416 76 124 0.0 3.0 0.00 0.00 0.00 90 1009.8
20260509151943 75 86 0.0 3.0 0.00 0.00 0.00 90 1009.7
20260509150922 74 105 0.0 0.0 0.00 0.00 0.00 92 1009.9
20260509150429 74 102 0.0 0.0 0.00 0.00 0.00 92 1009.9
20260509145933 73 102 0.0 0.0 0.00 0.00 0.00 92 1010.0
20260509144454 73 102 0.0 0.0 0.00 0.00 0.00 92 1010.2
20260509144001 73 102 0.0 0.0 0.00 0.00 0.00 92 1010.2
20260509142937 73 102 0.0 0.0 0.00 0.00 0.00 92 1010.3
20260509142350 73 102 0.0 0.0 0.00 0.00 0.00 92 1010.3
20260509141402 73 102 0.0 0.0 0.00 0.00 0.00 92 1010.3
20260509140412 72 113 0.0 1.0 0.00 0.00 0.00 92 1010.2
20260509135949 72 113 0.0 2.0 0.00 0.00 0.00 92 1010.2
20260509135352 72 96 1.0 2.0 0.00 0.00 0.00 92 1010.1
20260509134922 72 98 0.0 2.0 0.00 0.00 0.00 93 1010.1
20260509133916 72 136 0.0 1.0 0.00 0.00 0.00 93 1010.0
20260509133428 72 90 0.0 1.0 0.00 0.00 0.00 94 1010.0
20260509132411 72 90 0.0 2.0 0.00 0.00 0.00 94 1009.9
20260509131924 71 91 0.0 0.0 0.00 0.00 0.00 94 1010.1
20260509130850 71 91 0.0 2.0 0.00 0.00 0.00 94 1010.2
20260509130420 71 82 0.0 1.0 0.00 0.00 0.00 94 1010.1
20260509125422 71 82 0.0 2.0 0.00 0.00 0.00 95 1010.0
20260509124400 71 80 1.0 2.0 0.00 0.00 0.00 94 1009.9
20260509123935 71 60 0.0 2.0 0.00 0.00 0.00 94 1009.9
20260509122906 70 79 0.0 4.0 0.00 0.00 0.00 94 1010.0
20260509122436 70 78 0.0 4.0 0.00 0.00 0.00 94 1009.9
20260509121853 70 82 0.0 2.0 0.00 0.00 0.00 94 1009.8
20260509120901 70 81 0.0 1.0 0.00 0.00 0.00 94 1009.5
20260509120443 70 81 0.0 0.0 0.00 0.00 0.00 94 1009.2
20260509115418 70 80 0.0 0.0 0.00 0.00 0.00 94 1009.3
20260509114944 70 80 0.0 1.0 0.00 0.00 0.00 94 1009.3
20260509114358 70 80 0.0 1.0 0.00 0.00 0.00 94 1009.2
20260509113413 70 80 0.0 2.0 0.00 0.00 0.00 94 1009.3
20260509112412 70 93 0.0 2.0 0.00 0.00 0.00 94 1008.9
20260509111856 70 94 0.0 2.0 0.00 0.00 0.00 94 1008.8
20260509111424 70 98 0.0 2.0 0.00 0.00 0.00 94 1008.7
20260509110912 70 98 0.0 2.0 0.00 0.00 0.00 94 1008.6
20260509105928 70 211 0.0 0.0 0.00 0.00 0.00 94 1008.2
20260509104909 70 297 0.0 0.0 0.00 0.00 0.00 94 1008.1
20260509103855 70 297 0.0 0.0 0.00 0.00 0.00 94 1008.3
20260509103405 70 101 0.0 0.0 0.00 0.00 0.00 94 1008.4
20260509102418 70 101 0.0 1.0 0.00 0.00 0.00 94 1008.6
20260509101420 70 117 0.0 0.0 0.00 0.00 0.00 94 1008.5
20260509100959 70 117 0.0 0.0 0.00 0.00 0.00 93 1008.6
20260509100409 70 117 0.0 0.0 0.00 0.00 0.00 93 1008.7
20260509095939 70 117 0.0 1.0 0.00 0.00 0.00 93 1008.8
20260509095349 70 117 0.0 2.0 0.00 0.00 0.00 93 1008.8
20260509094915 70 117 0.0 4.0 0.00 0.00 0.00 93 1009.1
20260509094456 70 100 0.0 1.0 0.00 0.00 0.00 93 1009.1
20260509093857 70 100 0.0 1.0 0.00 0.00 0.00 93 1009.0
20260509093431 70 113 0.0 0.0 0.00 0.00 0.00 93 1009.1
20260509092422 70 130 0.0 1.0 0.00 0.00 0.00 93 1009.1
20260509091945 70 138 0.0 1.0 0.00 0.00 0.00 92 1009.2
20260509091433 70 142 0.0 0.0 0.00 0.00 0.00 92 1009.0